Location: Titusville
(28.6119°N, 80.8078°W)
Time: 13:18:51
(UTC-05:00)

Tiangong 2 - Visible Passes

Search period start: 21 January 2019 00:00
Search period end: 31 January 2019 00:00
Orbit: 380 x 392 km, 42.8° (Epoch: 20 January)

Date Brightness Start Highest point End Pass type
(mag) Time Alt. Az. Time Alt. Az. Time Alt. Az.
26 Jan 3.1 06:33:54 10° NNW 06:36:26 21° NNE 06:38:59 10° E visible
27 Jan 3.6 05:37:08 14° NNE 05:37:11 14° NNE 05:38:57 10° NE visible
28 Jan 2.1 06:13:13 18° NNW 06:15:14 39° NNE 06:18:14 10° ESE visible
29 Jan 3.7 05:17:07 19° NE 05:17:07 19° NE 05:18:37 10° E visible
30 Jan 1.0 05:53:20 58° NW 05:53:53 89° NNE 05:57:04 10° SE visible
